Overview Statistics Trail Chart Weather Telemetry Raw packets
 

This is the latest recevied weather packets stored in our database for station/object AB4BJ-10. If no packets are shown the sender has not sent any weather packets the latest 10 day(s).

<< 58 59 60 61 62 63 64 >>
Time Temp. Humidity Pressure Rain* Wind** Luminosity Snow
1788204438 32.22° C 59% 1015.9 hPa 0 mm - - -
1788204138 32.78° C 60% 1016 hPa 0 mm - - -
1788203838 32.78° C 62% 1015.9 hPa 0 mm - - -
1788203538 32.78° C 62% 1015.9 hPa 0 mm - - -
1788203239 33.33° C 61% 1016 hPa 0 mm - - -
1788202937 32.78° C 62% 1016 hPa 0 mm - - -
1788202637 32.22° C 61% 1016.1 hPa 0 mm - - -
1788202336 32.22° C 61% 1016.1 hPa 0 mm - - -
1788201777 31.11° C 65% 1016.3 hPa 0 mm - - -
1788201736 31.11° C 65% 1016.3 hPa 0 mm - - -
1788201436 30.56° C 66% 1016.4 hPa 0 mm - - -
1788200835 30.56° C 72% 1016.6 hPa 0 mm - - -
1788200535 30.56° C 72% 1016.6 hPa 0 mm - - -
1788200235 31.11° C 68% 1016.6 hPa 0 mm - - -
1788199936 31.67° C 67% 1016.6 hPa 0 mm - - -
1788199634 31.67° C 66% 1016.7 hPa 0 mm - - -
1788199334 31.67° C 65% 1016.7 hPa 0 mm - - -
1788199033 31.67° C 66% 1016.8 hPa 0 mm - - -
1788198433 31.11° C 66% 1016.8 hPa 0 mm - - -
1788198214 31.11° C 66% 1016.9 hPa 0 mm - - -
1788198135 31.11° C 66% 1016.9 hPa 0 mm - - -
1788197889 30.56° C 67% 1017 hPa 0 mm - - -
1788197832 30.56° C 67% 1017 hPa 0 mm - - -
1788197532 30.56° C 68% 1017 hPa 0 mm - - -
1788197232 30.56° C 67% 1017 hPa 0 mm - - -

* Rain latest hour (hover to see other rain measurements)
** Current wind speed in m/s (hover to see current wind gust speed)